Weather History for KDYT - March, 2013

Change the Weather History Date:

Tuesday, March 19, 2013

  Actual Average Record
Temperature  
Mean Temperature 16 °F -  
Max Temperature 23 °F - - ()
Min Temperature 10 °F - - ()
Degree Days  
Heating Degree Days 48    
Moisture  
Dew Point 6 °F    
Average Humidity 64    
Maximum Humidity 79    
Minimum Humidity 49    
Precipitation  
Precipitation 0.00 in - - ()
Sea Level Pressure  
Sea Level Pressure 29.86 in    
Wind  
Wind Speed 22 mph (West)    
Max Wind Speed 30 mph    
Max Gust Speed 36 mph    
Visibility 9 miles    
Events Snow    
T = Trace of Precipitation, MM = Missing Value Source: NWS Daily Summary

Daily Weather History Graph

Daily Weather History Graph

Search for Another Location

Airport or City:

Trip Planner

Search our weather history database for the weather conditions in past years. The results will help you decide how hot, cold, wet, or windy it might be!

Date:

Astronomy

Mar. 19, 2013 Rise Set
Actual Time 7:12 AM CDT 7:19 PM CDT
Civil Twilight 6:42 AM CDT 7:50 PM CDT
Nautical Twilight 6:07 AM CDT 8:25 PM CDT
Astronomical Twilight 5:30 AM CDT 9:02 PM CDT
Moon 11:43 AM CDT (3/19) 2:27 AM CDT (3/19)
Length of Visible Light 13h 07m
Length of Day
12h 07m
Waxing Crescent, 50% of the Moon is Illuminated
Mar 19
Waxing Crescent
Mar 19
First Quarter
Mar 27
Full
Apr 2
Last Quarter
Apr 10
New

Hourly Weather History & Observations

Time (CDT) Temp. Windchill Dew Point Humidity Pressure Visibility Wind Dir Wind Speed Gust Speed Precip Events Conditions
12:13 AM 19.4 °F 2.5 °F 12.2 °F 74% 29.60 in 10.0 mi West 23.0 mph 28.8 mph N/A   Overcast
12:34 AM 19.4 °F 2.1 °F 12.2 °F 74% 29.60 in 7.0 mi West 24.2 mph 33.4 mph N/A   Overcast
12:53 AM 17.6 °F 0.1 °F 12.2 °F 79% 29.61 in 7.0 mi West 23.0 mph 33.4 mph N/A   Overcast
1:13 AM 17.6 °F -0.6 °F 10.4 °F 73% 29.61 in 5.0 mi West 25.3 mph - N/A Snow Light Snow
1:34 AM 15.8 °F -3.1 °F 10.4 °F 79% 29.61 in 5.0 mi West 25.3 mph 32.2 mph N/A   Haze
1:53 AM 15.8 °F -3.4 °F 10.4 °F 79% 29.62 in 5.0 mi West 26.5 mph 33.4 mph N/A Snow Light Snow
2:13 AM 15.8 °F -3.1 °F 10.4 °F 79% 29.63 in 5.0 mi West 25.3 mph - N/A Snow Light Snow
2:34 AM 15.8 °F -2.3 °F 10.4 °F 79% 29.65 in 10.0 mi West 23.0 mph 27.6 mph N/A Snow Light Snow
2:53 AM 15.8 °F -3.1 °F 10.4 °F 79% 29.65 in 7.0 mi West 25.3 mph 32.2 mph N/A Snow Light Snow
3:13 AM 15.8 °F -4.4 °F 8.6 °F 73% 29.65 in 7.0 mi West 29.9 mph 35.7 mph N/A   Overcast
3:34 AM 15.8 °F -2.7 °F 8.6 °F 73% 29.66 in 7.0 mi West 24.2 mph 34.5 mph N/A   Overcast
3:53 AM 15.8 °F -4.4 °F 8.6 °F 73% 29.67 in 7.0 mi WNW 29.9 mph 34.5 mph N/A   Overcast
4:13 AM 14.0 °F -5.8 °F 6.8 °F 73% 29.67 in 7.0 mi West 26.5 mph 35.7 mph N/A   Scattered Clouds
4:34 AM 14.0 °F -5.1 °F 6.8 °F 73% 29.68 in 10.0 mi West 24.2 mph 32.2 mph N/A   Clear
5:13 AM 12.2 °F -4.3 °F 6.8 °F 79% 29.72 in 10.0 mi West 16.1 mph 26.5 mph N/A   Clear
5:34 AM 12.2 °F -3.1 °F 5.0 °F 73% 29.73 in 10.0 mi WSW 13.8 mph 23.0 mph N/A   Scattered Clouds
5:53 AM 12.2 °F -3.7 °F 5.0 °F 73% 29.73 in 10.0 mi WSW 15.0 mph 19.6 mph N/A   Mostly Cloudy
6:13 AM 12.2 °F -2.5 °F 5.0 °F 73% 29.74 in 10.0 mi West 12.7 mph 19.6 mph N/A   Scattered Clouds
6:33 AM 12.2 °F -6.7 °F 5.0 °F 73% 29.74 in 10.0 mi West 21.9 mph 27.6 mph N/A   Scattered Clouds
6:54 AM 12.2 °F -7.9 °F 5.0 °F 73% 29.75 in 10.0 mi West 25.3 mph 28.8 mph N/A   Mostly Cloudy
7:13 AM 12.2 °F -7.1 °F 5.0 °F 73% 29.77 in 10.0 mi West 23.0 mph 31.1 mph N/A   Mostly Cloudy
7:33 AM 12.2 °F -7.1 °F 5.0 °F 73% 29.78 in 10.0 mi West 23.0 mph 29.9 mph N/A   Scattered Clouds
7:54 AM 12.2 °F -7.1 °F 5.0 °F 73% 29.80 in 10.0 mi West 23.0 mph 28.8 mph N/A   Clear
8:13 AM 10.4 °F -9.1 °F 5.0 °F 79% 29.81 in 10.0 mi West 21.9 mph - N/A   Clear
8:33 AM 10.4 °F -9.1 °F 3.2 °F 73% 29.82 in 10.0 mi West 21.9 mph 29.9 mph N/A   Clear
8:54 AM 10.4 °F -8.2 °F 3.2 °F 73% 29.84 in 10.0 mi West 19.6 mph 26.5 mph N/A   Clear
9:13 AM 10.4 °F -7.2 °F 3.2 °F 73% 29.84 in 10.0 mi West 17.3 mph - N/A   Clear
9:33 AM 10.4 °F -7.2 °F 3.2 °F 73% 29.85 in 10.0 mi West 17.3 mph 23.0 mph N/A   Clear
9:54 AM 12.2 °F -3.7 °F 3.2 °F 67% 29.86 in 10.0 mi West 15.0 mph - N/A   Clear
10:13 AM 12.2 °F -3.7 °F 3.2 °F 67% 29.86 in 10.0 mi West 15.0 mph - N/A   Clear
10:33 AM 12.2 °F -3.1 °F 3.2 °F 67% 29.86 in 10.0 mi West 13.8 mph 21.9 mph N/A   Clear
10:54 AM 14.0 °F -3.0 °F 3.2 °F 62% 29.87 in 10.0 mi West 18.4 mph 24.2 mph N/A   Clear
11:13 AM 15.8 °F -0.6 °F 6.8 °F 68% 29.87 in 10.0 mi West 18.4 mph 25.3 mph N/A   Clear
11:34 AM 17.6 °F 1.7 °F 6.8 °F 63% 29.88 in 10.0 mi West 18.4 mph 27.6 mph N/A   Clear
11:54 AM 19.4 °F 2.8 °F 6.8 °F 58% 29.88 in 10.0 mi West 21.9 mph 25.3 mph N/A   Clear
12:13 PM 19.4 °F 3.2 °F 6.8 °F 58% 29.88 in 10.0 mi West 20.7 mph 24.2 mph N/A   Clear
12:34 PM 21.2 °F 7.3 °F 8.6 °F 58% 29.89 in 10.0 mi West 16.1 mph 26.5 mph N/A   Clear
12:54 PM 21.2 °F 6.0 °F 8.6 °F 58% 29.89 in 10.0 mi West 19.6 mph 24.2 mph N/A   Clear
1:13 PM 21.2 °F 4.2 °F 8.6 °F 58% 29.89 in 10.0 mi West 25.3 mph 31.1 mph N/A   Clear
1:34 PM 21.2 °F 6.0 °F 8.6 °F 58% 29.90 in 10.0 mi West 19.6 mph 25.3 mph N/A   Clear
1:53 PM 23.0 °F 8.7 °F 8.6 °F 54% 29.90 in 10.0 mi West 18.4 mph 26.5 mph N/A   Clear
2:13 PM 23.0 °F 7.2 °F 8.6 °F 54% 29.90 in 10.0 mi West 23.0 mph 28.8 mph N/A   Clear
2:34 PM 23.0 °F 7.6 °F 8.6 °F 54% 29.91 in 10.0 mi West 21.9 mph 31.1 mph N/A   Clear
2:53 PM 23.0 °F 6.6 °F 8.6 °F 54% 29.91 in 10.0 mi West 25.3 mph 29.9 mph N/A   Clear
3:13 PM 23.0 °F 7.2 °F 8.6 °F 54% 29.91 in 10.0 mi WNW 23.0 mph 28.8 mph N/A   Clear
3:34 PM 23.0 °F 8.7 °F 8.6 °F 54% 29.92 in 10.0 mi West 18.4 mph 27.6 mph N/A   Clear
3:53 PM 23.0 °F 7.6 °F 8.6 °F 54% 29.92 in 10.0 mi West 21.9 mph 27.6 mph N/A   Clear
4:13 PM 23.0 °F 6.6 °F 8.6 °F 54% 29.93 in 10.0 mi West 25.3 mph 28.8 mph N/A   Clear
4:33 PM 23.0 °F 8.0 °F 8.6 °F 54% 29.94 in 10.0 mi WNW 20.7 mph - N/A   Clear
4:54 PM 23.0 °F 8.3 °F 6.8 °F 50% 29.95 in 10.0 mi WNW 19.6 mph 28.8 mph N/A   Clear
5:13 PM 23.0 °F 8.3 °F 6.8 °F 50% 29.96 in 10.0 mi West 19.6 mph 27.6 mph N/A   Clear
5:34 PM 23.0 °F 8.0 °F 6.8 °F 50% 29.96 in 10.0 mi West 20.7 mph 32.2 mph N/A   Clear
5:53 PM 23.0 °F 8.7 °F 6.8 °F 50% 29.97 in 10.0 mi West 18.4 mph 25.3 mph N/A   Clear
6:13 PM 21.2 °F 4.5 °F 6.8 °F 54% 29.98 in 10.0 mi West 24.2 mph - N/A   Clear
6:34 PM 21.2 °F 6.4 °F 6.8 °F 54% 29.99 in 10.0 mi West 18.4 mph - N/A   Clear
7:13 PM 21.2 °F 7.3 °F 6.8 °F 54% 30.00 in 10.0 mi West 16.1 mph - N/A   Clear
7:34 PM 19.4 °F 5.0 °F 5.0 °F 54% 30.01 in 10.0 mi West 16.1 mph 26.5 mph N/A   Clear
7:53 PM 19.4 °F 6.6 °F 3.2 °F 49% 30.02 in 10.0 mi WSW 12.7 mph - N/A   Clear
8:14 PM 19.4 °F 6.0 °F 3.2 °F 49% 30.03 in 10.0 mi WSW 13.8 mph - N/A   Clear
8:33 PM 17.6 °F 3.2 °F 3.2 °F 53% 30.04 in 10.0 mi West 15.0 mph - N/A   Clear
8:53 PM 17.6 °F 2.2 °F 3.2 °F 53% 30.04 in 10.0 mi West 17.3 mph 24.2 mph N/A   Clear
9:14 PM 15.8 °F -1.1 °F 3.2 °F 58% 30.05 in 10.0 mi West 19.6 mph 26.5 mph N/A   Clear
9:33 PM 15.8 °F -0.6 °F 1.4 °F 53% 30.05 in 10.0 mi West 18.4 mph 24.2 mph N/A   Clear
9:53 PM 14.0 °F -3.4 °F 1.4 °F 57% 30.06 in 10.0 mi West 19.6 mph 27.6 mph N/A   Clear
10:14 PM 14.0 °F -4.7 °F 1.4 °F 57% 30.06 in 10.0 mi West 23.0 mph 28.8 mph N/A   Clear
10:33 PM 12.2 °F -5.8 °F 1.4 °F 62% 30.06 in 10.0 mi West 19.6 mph 29.9 mph N/A   Clear
10:54 PM 12.2 °F -6.7 °F 1.4 °F 62% 30.06 in 10.0 mi West 21.9 mph 28.8 mph N/A   Clear
11:14 PM 12.2 °F -5.8 °F -0.4 °F 57% 30.06 in 10.0 mi WNW 19.6 mph 27.6 mph N/A   Clear
11:33 PM 12.2 °F -6.3 °F -0.4 °F 57% 30.06 in 10.0 mi West 20.7 mph 26.5 mph N/A   Clear
11:53 PM 10.4 °F -9.1 °F -0.4 °F 62% 30.06 in 10.0 mi WNW 21.9 mph 27.6 mph N/A   Clear